This demonstration page uses our WeatherBlox Daily Observations layout. Learn more.

Left ArrowRight Arrow

Hourly Observations for May 6, 2018

Temp ( °F °C ) Dew Point ( °F °C ) Humidity (%) Winds ( mph kmh ) Pressure ( in mb ) Visibility ( mi km ) Precip ( " mm )
12:53 am 00:53 Clear 57 13.9 53 11.7 87 87 N 3 6 29.99 1016 10 16 0.00 0.00
1:53 am 01:53 Clear 56 13.3 54 12.2 93 93 Calm 29.98 1015 10 16 0.00 0.00
2:53 am 02:53 Clear 56 13.3 54 12.2 93 93 Calm 29.98 1015 10 16 0.00 0.00
3:53 am 03:53 Clear 55 12.8 54 12.2 96 96 Calm 29.98 1015 8 13 0.00 0.00
4:53 am 04:53 Clear 55 12.8 53 11.7 93 93 Calm 29.98 1015 8 13 0.00 0.00
5:53 am 05:53 Clear with Mist and Fog 55 12.8 54 12.2 96 96 Calm 29.99 1016 6 10 0.00 0.00
6:53 am 06:53 Sunny with Mist and Fog 54 12.2 53 11.7 97 97 Calm 29.99 1016 5 8 0.00 0.00
7:53 am 07:53 Sunny 55 12.8 53 11.7 93 93 Calm 29.99 1016 7 11 0.00 0.00
8:53 am 08:53 Sunny 59 15 55 12.8 87 87 Calm 29.98 1015 9 14 0.00 0.00
9:53 am 09:53 Sunny 63 17.2 56 13.3 78 78 Calm 29.98 1015 10 16 0.00 0.00
10:53 am 10:53 Sunny 69 20.6 57 13.9 66 66 Calm 29.98 1015 10 16 0.00 0.00
11:53 am 11:53 Sunny 71 21.7 53 11.7 53 53 VRB 3 6 29.98 1015 10 16 0.00 0.00
12:53 pm 12:53 Sunny 74 23.3 50 10 43 43 ESE 5 7 29.96 1015 10 16 0.00 0.00
1:53 pm 13:53 Sunny 77 25 53 11.7 43 43 NE 6 9 29.95 1014 10 16 0.00 0.00
2:53 pm 14:53 Sunny 79 26.1 53 11.7 41 41 Calm 29.93 1013 10 16 0.00 0.00
3:53 pm 15:53 Sunny 79 26.1 50 10 36 36 VRB 3 6 29.89 1012 10 16 0.00 0.00
4:19 pm 16:19 Partly Cloudy with Nearby Thunderstorms 77 25 52 11.1 42 42 WSW 6 9 29.91 1013 10 16 0.00 0.00
4:53 pm 16:53 Mostly Cloudy with Nearby Thunderstorms 74 23.3 57 13.9 56 56 SW 7 11 29.89 1012 10 16 0.00 0.03
5:39 pm 17:39 Cloudy with Thunderstorms 63 17.2 55 12.8 76 76 NNW 10 17 29.97 1015 10 16 0.01 0.25
5:53 pm 17:53 Cloudy with Thunderstorms 64 17.8 56 13.3 75 75 NW 6 9 29.97 1015 10 16 0.02 0.51
6:01 pm 18:01 Cloudy with Nearby Thunderstorms 64 17.8 58 14.4 81 81 WSW 6 9 29.97 1015 7 11 0.01 0.25
6:22 pm 18:22 Partly Cloudy 65 18.3 59 15 81 81 Calm 29.97 1015 10 16 0.01 0.25
6:53 pm 18:53 Cloudy 65 18.3 59 15 81 81 E 5 7 29.96 1015 10 16 0.01 0.25
7:53 pm 19:53 Partly Cloudy 66 18.9 58 14.4 75 75 VRB 3 6 29.96 1014 10 16 0.00 0.00
8:53 pm 20:53 Partly Cloudy 64 17.8 60 15.6 87 87 Calm 29.98 1015 10 16 0.00 0.00
9:53 pm 21:53 Cloudy with Light Rain 62 16.7 60 15.6 93 93 Calm 30.00 1016 9 14 0.00 0.03
10:53 pm 22:53 Cloudy with Light Rain 63 17.2 60 15.6 90 90 Calm 30.00 1016 10 16 0.01 0.25
11:53 pm 23:53 Mostly Cloudy 61 16.1 59 15 93 93 Calm 30.01 1016 8 13 0.00 0.03

Powered by AerisWeather